Location: Newark
(42.9277°N, 71.8621°W)
Time: 19:04:15
(UTC+00:00)

Transit 4A - Pass Details

Date: 15 May 2021
Orbit: 872 x 973 km, 66.8° (Epoch: 15 June)

Event Time Altitude Azimuth Distance (km) Brightness Sun altitude
Rises 06:32:48 0° 333° (NNW) 3,494 11.4 -23.2°
Reaches altitude 10° 06:35:27 10° 340° (NNW) 2,542 10.7 -23.0°
Maximum altitude 06:41:01 43° 51° (NE) 1,215 8.9 -22.5°
Drops below altitude 10° 06:46:30 10° 122° (ESE) 2,516 10.1 -22.0°
Sets 06:49:07 0° 129° (SE) 3,454 10.8 -21.8°
